ONEWEB-0096 (45439 NORAD) Tracking and Keplerian Element Data

This shows tracking and keplerian element data for the satellite.

Feedback or suggestion? Click here.




ElementValue
Catalog45439
NameONEWEB-0096
Epoch Orbit1593
Epoch Day187.58334491
Epoch Year2020
RAAN104.3119
Inclination87.5727
Eccentricity0.0021292
Argument of Perigee270.4264
Mean Anonmoly55.1232
Mean Motion14.90149875
Decay Rate0.00041669
L11 45439U 20020R 20187.58334491 .00041669 00000-0 42661-2 0 9991
L22 45439 87.5727 104.3119 0021292 270.4264 55.1232 14.90149875 15937

Live tracking and technical data element details for ONEWEB-0096 (NORAD 45439). ONEWEB-0096 can be tracked NOW for your location showing map with azimuth and elevation plus other details from your city location.

Track the satellite on the map from your city or location and see movement details for azimuth, elevation, latitude, longitude, range, height, and movement on the map or in text.







IsCatalogInMostPopularTable: catalog: 45439, numindb: 20
Update: records affected: 1



GetName: 45439 ONEWEB-0096

Hit Count: updated at: Mon, 06 Jul 2020 04:32:42 GMT